567  
ASUS42 KCHS 150227  
RWRCHS  
 
REGIONAL WEATHER ROUNDUP  
NATIONAL WEATHER SERVICE CHARLESTON SC  
1000 PM EDT FRI AUG 14 2020  
 
NOTE: "FAIR" INDICATES FEW OR NO CLOUDS BELOW 12,000 FEET WITH NO  
SIGNIFICANT WEATHER AND/OR S TO VISIBILITY
.  
 
NOT ALL STATIONS ARE QUALITY CONTROLLED. USE DATA WITH CAUTION,  
ESPECIALLY DEWPOINT OBSERVATIONS.  
 
SCZ027-030-031-034>040-042>050-150300-   
..SOUTHEAST SOUTH CAROLINA
 
 
 
CITY SKY/WX TMP DP RH WIND PRES REMARKS
 
N CHARLESTON LGT RAIN 79 76 90 CALM 29.95S  
WATERFRONT PRK N/A 77 75 93 VRB3 29.80R  
MOUNT PLEASANT CLOUDY 79 77 94 CALM 29.95S  
JOHNS ISLAND DRIZZLE 79 77 94 CALM 29.96R  
PINOPOLIS N/A 79 75 89 SW5 29.90R  
MONCKS CORNER TSTM 73 73 100 CALM 29.96S  
SUMMERVILLE LGT RAIN 77 75 94 CALM 29.95F  
BEAUFORT MCAS CLOUDY 81 75 82 CALM 29.95R  
BEAUFORT ARPT FAIR 79 75 89 SW3 29.95R  
HILTON HEAD IS N/A N/A N/A N/A MISG N/A  
WALTERBORO CLOUDY 73 73 100 SE3 29.96S  
ALLENDALE FAIR 77 77 100 CALM 29.94R  
   
..SOUTHERN MIDLANDS AND PEE DEE
 
 
 
CITY SKY/WX TMP DP RH WIND PRES REMARKS
 
GEORGETOWN FAIR 79 75 89 CALM 29.96F  
KINGSTREE MOCLDY 77 73 88 S3 29.96R  
ORANGEBURG CLOUDY 76 75 97 E3 29.95S  
BARNWELL MOCLDY 77 75 94 CALM 29.95R  
AIKEN FAIR 75 74 98 CALM 29.97R  
MANNING FAIR 77 72 83 SW3 29.95S  
COLUMBIA CLOUDY 80 74 81 SE3 29.94R  
SUMTER PTCLDY 80 75 82 S7 29.94  
FLORENCE PTCLDY 80 74 81 CALM 29.95R  
MYRTLE BEACH MOCLDY 82 79 90 SW9 29.96R HX 92  
N MYRTLE BEACH PTCLDY 83 79 88 SW14 29.94R HX 94  
 

 
 
GAZ063-065-086>088-099>101-113>116-118-119-134>141-150-150300-   
..SOUTHEAST GEORGIA
 
 
 
CITY SKY/WX TMP DP RH WIND PRES REMARKS
 
SAVANNAH ARPT MOCLDY 80 75 84 S9 29.96R  
HUNTER AAF MOCLDY 78 75 90 SW3 29.93R  
FORT STEWART MOCLDY 77 74 91 CALM 29.94R  
STATESBORO MOCLDY 77 73 85 S3 29.95S  
SYLVANIA MOCLDY 77 74 90 S5 29.96R  
CLAXTON FAIR 77 76 94 CALM 29.95S  
MILLEN FAIR 77 76 97 CALM 29.94S  
METTER FAIR 77 76 96 S3 29.95S  
REIDSVILLE NOT AVBL  
   
..CSRA, CENTRAL AND FAR SOUTHEAST GEORGIA
 
 
 
CITY SKY/WX TMP DP RH WIND PRES REMARKS
 
THOMSON MOCLDY 75 N/A N/A CALM 29.95R FOG  
AUGUSTA-BUSH MOCLDY 78 76 93 CALM 29.93R  
AUGUSTA-DANIEL MOCLDY 78 75 90 SE3 29.95R FOG  
SWAINSBORO FAIR 79 77 94 CALM 29.96R  
VIDALIA MOCLDY 79 72 78 CALM 29.95S  
EASTMAN FAIR 75 74 95 CALM 29.97S  
HAZLEHURST FAIR N/A N/A N/A CALM 29.94S  
ALMA PTCLDY 78 75 90 CALM 29.95R  
WAYCROSS MOCLDY 79 74 84 S5 29.96R  
JESUP FAIR 79 73 83 CALM 29.97R  
BAXLEY FAIR N/A N/A N/A CALM 29.95S  
BRUNSWICK CLOUDY 78 74 90 CALM 29.96R  
SAINT SIMONS CLOUDY 80 77 90 S3 29.96R  
 

 
 
SCZ027-028-034-036>038-045-046-048>050-GAZ119-141-150300-   
..LAKE AND SUPPLEMENTAL COASTAL OBSERVATIONS
 
 
 
STATION/POSITION TIME TEMP WIND PRES WAVE SWELL
 
AIR SEA DIR/SP/G HT/PER HT/PER/DIR  
(UTC) (F) (DEG/KT/KT) (MB) (FT/S) (FT/S/D)  
WINYAH BAY 0145 82 260/ 2 1014.0R  
LAKE MURRAY 0130 80 250/ 3/ 6 N/A  
CHRLSTN HARBOR 0142 80 87 220/ 4/ 6 1014.4R  
ACE BASIN NERRS 0145 78 CALM 1014.0S  
FORT PULASKI 0142 81 86 230/ 5/ 8 1014.6R  
SAPELO ISLAND 0200 79 180/ 5 1014.0  
 

 
 
ANZ835-935-AMZ111-154-330-350-352-354-370-450-454-472-150300-   
..C-MAN AND BUOY OBSERVATIONS
 
 
 
STATION/POSITION TIME TEMP WIND PRES WAVE SWELL
 
AIR SEA DIR/SP/G HT/PER HT/PER/DIR  
(UTC) (F) (DEG/KT/KT) (MB) (FT/S) (FT/S/D)  
BUOY 41004 0200 83 210/ 16/ 19 1014.6  
BUOY 41008 0150 83 85 200/ 12/ 16 1014.2R 2/ 4  
FOLLY BEACH CMAN 0100 84 200/ 16/ 19 1014.5R  
CAPERS NEARSHORE 0208 84 85 220/ 14/ 17 1014.1R  
FRIPP NEARSHORE 0208 83 86 250/ 10/ 16 1014.0R  
 
 
STATION/POSITION TIME TEMP WIND PRES WAVE SWELL
 
AIR SEA DIR/SP/G HT/PER HT/PER/DIR  
(UTC) (F) (DEG/KT/KT) (MB) (FT/S) (FT/S/D)  
5E ST. MARYS GA 0200 83 85 N/A 2/ 4  
FRYING PAN BUOY 0210 82 220/ 12/ 14 1014.0  
BUOY 41025 0210 82 83 240/ 16/ 19 N/A  
CAPE LOOKOUT NC 0200 82 220/ 8/ 11 1014.1R  
BUOY 41002 0210 83 84 210/ 10/ 12 1016.7  
BUOY 41010 0200 85 160/ 10/ 12 1016.4  
ST AUGUSTINE FL 0200 77 84 190/ 12/ 14 1015.6R  
 

 
 
 
CLICK HERE TO GO TO PREVIOUS BULLETINS.

The Nexlab SC Page
The Nexlab GA Page Main Text Page